�������l�o���
Date,Time,MP-1(��Sv/h),MP-2(��Sv/h),MP-3(��Sv/h),MP-4(��Sv/h),MP-5(��Sv/h),MP-6(��Sv/h),MP-7(��Sv/h),MP-8(��Sv/h),����,����(m/s),���J
2019/01/06,00:00,0.785,1.177,0.826,1.506,1.071,0.452,0.801,0.758,�k�k��,3.8,��
2019/01/06,00:10,0.785,1.176,0.827,1.507,1.070,0.453,0.801,0.758,�k��,2.3,��
2019/01/06,00:20,0.786,1.178,0.826,1.506,1.069,0.452,0.800,0.757,�k��,1.7,��
2019/01/06,00:30,0.786,1.178,0.823,1.507,1.073,0.453,0.800,0.759,�k��,0.9,��
2019/01/06,00:40,0.787,1.177,0.825,1.507,1.072,0.454,0.800,0.760,�k�k��,1.9,��
2019/01/06,00:50,0.783,1.176,0.825,1.506,1.071,0.454,0.800,0.758,�k�k��,1.5,��
2019/01/06,01:00,0.786,1.175,0.825,1.507,1.070,0.454,0.801,0.758,�k�k��,1.2,��
2019/01/06,01:10,0.785,1.176,0.826,1.505,1.070,0.454,0.802,0.757,�k��,0.9,��
2019/01/06,01:20,0.785,1.176,0.823,1.509,1.071,0.453,0.799,0.758,�k�k��,0.9,��
2019/01/06,01:30,0.785,1.175,0.825,1.505,1.072,0.452,0.800,0.759,�k�k��,2.3,��
2019/01/06,01:40,0.786,1.178,0.825,1.507,1.071,0.452,0.798,0.757,�k�k��,1.9,��
2019/01/06,01:50,0.785,1.175,0.825,1.505,1.069,0.451,0.799,0.757,�k�k��,2.0,��
2019/01/06,02:00,0.785,1.175,0.825,1.504,1.069,0.451,0.800,0.759,�k�k��,3.4,��
2019/01/06,02:10,0.786,1.177,0.825,1.505,1.069,0.452,0.798,0.758,�k�k��,3.1,��
2019/01/06,02:20,0.783,1.175,0.824,1.504,1.068,0.452,0.798,0.757,�k�k��,5.0,��
2019/01/06,02:30,0.785,1.178,0.824,1.506,1.068,0.452,0.799,0.757,�k��,6.4,��
2019/01/06,02:40,0.786,1.179,0.824,1.507,1.070,0.453,0.798,0.758,�k��,7.1,��
2019/01/06,02:50,0.786,1.178,0.824,1.506,1.068,0.452,0.798,0.758,�k��,5.3,��
2019/01/06,03:00,0.784,1.179,0.826,1.506,1.068,0.452,0.800,0.756,�k��,2.5,��
2019/01/06,03:10,0.787,1.176,0.824,1.505,1.070,0.452,0.798,0.758,�k�k��,2.3,��
2019/01/06,03:20,0.787,1.175,0.824,1.505,1.067,0.451,0.801,0.757,�k�k��,2.6,��
2019/01/06,03:30,0.786,1.175,0.824,1.506,1.070,0.451,0.800,0.757,�k,4.1,��
2019/01/06,03:40,0.785,1.178,0.825,1.505,1.072,0.450,0.801,0.760,�k,4.5,��
2019/01/06,03:50,0.785,1.174,0.826,1.505,1.070,0.452,0.800,0.757,�k,4.2,��
2019/01/06,04:00,0.786,1.175,0.826,1.505,1.070,0.452,0.800,0.759,�k,5.7,��
2019/01/06,04:10,0.786,1.176,0.825,1.506,1.067,0.452,0.801,0.758,�k,7.6,��
2019/01/06,04:20,0.783,1.174,0.824,1.505,1.068,0.452,0.799,0.757,�k,7.1,��
2019/01/06,04:30,0.784,1.175,0.825,1.508,1.070,0.453,0.800,0.757,�k�k��,7.2,��
2019/01/06,04:40,0.786,1.178,0.826,1.507,1.070,0.452,0.798,0.757,�k�k��,6.5,��
2019/01/06,04:50,0.785,1.174,0.825,1.507,1.069,0.450,0.800,0.759,�k��,7.6,��
2019/01/06,05:00,0.785,1.174,0.826,1.504,1.070,0.451,0.800,0.758,�k�k��,7.5,��
2019/01/06,05:10,0.785,1.171,0.823,1.506,1.068,0.452,0.798,0.759,�k�k��,6.3,��
2019/01/06,05:20,0.785,1.175,0.824,1.507,1.069,0.451,0.799,0.756,�k�k��,7.1,��
2019/01/06,05:30,0.785,1.174,0.825,1.503,1.069,0.452,0.798,0.757,�k�k��,7.0,��
2019/01/06,05:40,0.786,1.174,0.822,1.504,1.070,0.452,0.799,0.758,�k�k��,6.7,��
2019/01/06,05:50,0.784,1.176,0.827,1.504,1.068,0.451,0.799,0.757,�k�k��,3.7,��
2019/01/06,06:00,0.784,1.174,0.824,1.506,1.071,0.450,0.800,0.757,��,1.4,��
2019/01/06,06:10,0.785,1.175,0.825,1.504,1.068,0.452,0.796,0.757,���k��,2.0,��
2019/01/06,06:20,0.783,1.175,0.824,1.505,1.068,0.452,0.799,0.759,���k��,3.3,��
2019/01/06,06:30,0.784,1.176,0.824,1.504,1.070,0.453,0.798,0.757,���k��,4.3,��
2019/01/06,06:40,0.784,1.174,0.825,1.505,1.070,0.453,0.799,0.756,���k��,4.0,��
2019/01/06,06:50,0.784,1.175,0.826,1.505,1.069,0.450,0.799,0.756,��,4.4,��
2019/01/06,07:00,0.782,1.175,0.825,1.505,1.069,0.452,0.800,0.757,��,4.4,��
2019/01/06,07:10,0.784,1.175,0.825,1.506,1.067,0.452,0.798,0.756,��,4.8,��
2019/01/06,07:20,0.783,1.176,0.824,1.506,1.068,0.451,0.798,0.756,��,4.1,��
2019/01/06,07:30,0.784,1.176,0.824,1.507,1.069,0.453,0.799,0.758,���쐼,3.6,��
2019/01/06,07:40,0.784,1.177,0.826,1.506,1.069,0.451,0.798,0.758,���쐼,3.0,��
2019/01/06,07:50,0.786,1.174,0.825,1.506,1.067,0.450,0.797,0.757,���쐼,2.3,��
2019/01/06,08:00,0.786,1.176,0.826,1.504,1.069,0.451,0.800,0.758,���쐼,1.2,��
2019/01/06,08:10,0.785,1.178,0.824,1.505,1.071,0.451,0.798,0.758,���쐼,2.0,��
2019/01/06,08:20,0.785,1.177,0.824,1.507,1.070,0.452,0.797,0.758,�쐼,2.0,��
2019/01/06,08:30,0.784,1.177,0.825,1.508,1.069,0.452,0.800,0.757,�쐼,3.5,��
2019/01/06,08:40,0.784,1.177,0.828,1.510,1.071,0.452,0.798,0.758,���쐼,3.5,��
2019/01/06,08:50,0.785,1.179,0.825,1.506,1.069,0.452,0.800,0.758,�쐼,3.2,��
2019/01/06,09:00,0.786,1.178,0.827,1.508,1.072,0.452,0.800,0.759,�쐼,2.5,��
2019/01/06,09:10,0.787,1.174,0.825,1.509,1.071,0.451,0.800,0.759,���쐼,1.7,��
2019/01/06,09:20,0.786,1.180,0.825,1.506,1.070,0.454,0.800,0.759,��,2.3,��
2019/01/06,09:30,0.785,1.177,0.827,1.508,1.072,0.451,0.802,0.758,���k��,2.3,��
2019/01/06,09:40,0.785,1.179,0.828,1.505,1.073,0.454,0.800,0.758,�k��,3.7,��
2019/01/06,09:50,0.786,1.179,0.827,1.506,1.072,0.453,0.801,0.758,�k��,4.2,��
2019/01/06,10:00,0.787,1.177,0.828,1.506,1.071,0.453,0.802,0.758,�k��,3.0,��
2019/01/06,10:10,0.787,1.178,0.829,1.506,1.070,0.451,0.799,0.758,�k��,5.5,��
2019/01/06,10:20,0.784,1.179,0.826,1.507,1.072,0.454,0.800,0.758,�k��,3.7,��
2019/01/06,10:30,0.787,1.178,0.827,1.506,1.071,0.452,0.801,0.759,�k�k��,3.1,��
2019/01/06,10:40,0.787,1.177,0.828,1.506,1.069,0.453,0.803,0.759,�k��,1.9,��
2019/01/06,10:50,0.786,1.180,0.828,1.507,1.072,0.453,0.800,0.758,�k,3.4,��
2019/01/06,11:00,0.786,1.176,0.827,1.507,1.071,0.454,0.801,0.760,�k,3.1,��
2019/01/06,11:10,0.789,1.179,0.826,1.507,1.071,0.453,0.803,0.758,�k�k��,1.7,��
2019/01/06,11:20,0.787,1.181,0.829,1.507,1.073,0.453,0.800,0.760,�k,2.6,��
2019/01/06,11:30,0.788,1.180,0.826,1.508,1.075,0.452,0.798,0.759,�k�k��,3.2,��
2019/01/06,11:40,0.789,1.178,0.828,1.507,1.073,0.454,0.802,0.760,�k�k��,3.0,��
2019/01/06,11:50,0.789,1.180,0.829,1.511,1.073,0.453,0.800,0.760,�k,3.1,��
2019/01/06,12:00,0.789,1.178,0.828,1.510,1.074,0.454,0.803,0.759,�k�k��,2.0,��
2019/01/06,12:10,0.790,1.179,0.828,1.510,1.071,0.453,0.802,0.759,�k�k��,2.9,��
2019/01/06,12:20,0.788,1.182,0.831,1.508,1.072,0.453,0.802,0.760,�k��,2.6,��
2019/01/06,12:30,0.787,1.179,0.829,1.510,1.075,0.454,0.800,0.759,�k,2.6,��
2019/01/06,12:40,0.789,1.179,0.827,1.508,1.072,0.454,0.800,0.759,�k�k��,1.7,��
2019/01/06,12:50,0.790,1.180,0.827,1.508,1.073,0.454,0.802,0.759,�k��,4.4,��
2019/01/06,13:00,0.790,1.179,0.829,1.510,1.073,0.453,0.801,0.759,���k��,4.2,��
2019/01/06,13:10,0.789,1.179,0.826,1.510,1.072,0.455,0.799,0.760,��,5.0,��
2019/01/06,13:20,0.788,1.179,0.829,1.509,1.074,0.454,0.801,0.760,��,4.3,��
2019/01/06,13:30,0.788,1.180,0.827,1.510,1.073,0.454,0.800,0.758,��,5.4,��
2019/01/06,13:40,0.788,1.179,0.827,1.510,1.076,0.453,0.801,0.759,��,4.7,��
2019/01/06,13:50,0.789,1.179,0.827,1.508,1.074,0.454,0.800,0.760,��,3.1,��
2019/01/06,14:00,0.789,1.179,0.829,1.505,1.072,0.454,0.803,0.758,���k��,4.1,��
2019/01/06,14:10,0.787,1.178,0.829,1.510,1.073,0.454,0.801,0.760,��,4.2,��
2019/01/06,14:20,0.790,1.177,0.830,1.509,1.071,0.452,0.801,0.760,��,5.0,��
2019/01/06,14:30,0.790,1.179,0.829,1.511,1.073,0.454,0.802,0.761,���k��,3.1,��
2019/01/06,14:40,0.789,1.179,0.830,1.509,1.073,0.455,0.800,0.758,���k��,3.6,��
2019/01/06,14:50,0.789,1.179,0.829,1.510,1.073,0.454,0.803,0.759,���k��,2.2,��
2019/01/06,15:00,0.788,1.179,0.829,1.509,1.073,0.456,0.800,0.758,��,2.2,��
2019/01/06,15:10,0.790,1.181,0.830,1.508,1.073,0.454,0.801,0.759,���k��,3.0,��
2019/01/06,15:20,0.790,1.181,0.828,1.512,1.075,0.454,0.802,0.760,���k��,2.6,��
2019/01/06,15:30,0.790,1.181,0.828,1.511,1.071,0.454,0.801,0.761,���k��,1.5,��
2019/01/06,15:40,0.790,1.179,0.828,1.509,1.075,0.455,0.800,0.760,�k��,0.9,��
2019/01/06,15:50,0.790,1.178,0.829,1.508,1.073,0.454,0.800,0.758,-,CALM,��
2019/01/06,16:00,0.788,1.177,0.829,1.511,1.073,0.453,0.801,0.758,-,CALM,��
2019/01/06,16:10,0.788,1.178,0.830,1.506,1.072,0.456,0.800,0.758,-,CALM,��
2019/01/06,16:20,0.789,1.178,0.826,1.507,1.073,0.454,0.800,0.758,�쐼,1.1,��
2019/01/06,16:30,0.788,1.178,0.828,1.507,1.072,0.454,0.803,0.760,��,4.1,��
2019/01/06,16:40,0.787,1.179,0.829,1.508,1.074,0.456,0.802,0.759,��,4.5,��
2019/01/06,16:50,0.789,1.180,0.829,1.509,1.071,0.455,0.801,0.760,���k��,3.0,��
2019/01/06,17:00,0.788,1.178,0.828,1.508,1.070,0.454,0.803,0.760,��,2.0,��
2019/01/06,17:10,0.788,1.178,0.826,1.510,1.071,0.454,0.800,0.759,���k��,2.3,��
2019/01/06,17:20,0.787,1.179,0.826,1.506,1.073,0.454,0.799,0.760,��,2.2,��
2019/01/06,17:30,0.788,1.176,0.829,1.510,1.073,0.453,0.798,0.760,�k�k��,2.2,��
2019/01/06,17:40,0.788,1.180,0.827,1.509,1.075,0.454,0.802,0.758,�k��,1.7,��
2019/01/06,17:50,0.788,1.177,0.827,1.506,1.074,0.453,0.802,0.758,���k��,2.5,��
2019/01/06,18:00,0.787,1.180,0.827,1.509,1.073,0.454,0.802,0.759,���k��,3.7,��
2019/01/06,18:10,0.788,1.177,0.830,1.507,1.071,0.455,0.801,0.758,���k��,1.9,��
2019/01/06,18:20,0.788,1.176,0.829,1.508,1.073,0.452,0.800,0.758,���k��,4.5,��
2019/01/06,18:30,0.787,1.177,0.827,1.510,1.072,0.453,0.801,0.758,���k��,6.5,��
2019/01/06,18:40,0.788,1.177,0.827,1.506,1.072,0.454,0.800,0.758,���k��,5.9,��
2019/01/06,18:50,0.788,1.176,0.827,1.508,1.072,0.455,0.802,0.759,�k��,5.0,��
2019/01/06,19:00,0.787,1.178,0.827,1.509,1.072,0.454,0.801,0.757,�k��,5.5,��
2019/01/06,19:10,0.788,1.178,0.830,1.507,1.073,0.454,0.802,0.759,�k��,4.1,��
2019/01/06,19:20,0.787,1.177,0.827,1.508,1.072,0.454,0.801,0.759,�k��,3.3,��
2019/01/06,19:30,0.788,1.180,0.826,1.508,1.073,0.451,0.801,0.758,��,2.3,��
2019/01/06,19:40,0.788,1.177,0.829,1.509,1.072,0.453,0.800,0.758,���k��,4.9,��
2019/01/06,19:50,0.788,1.176,0.827,1.509,1.072,0.454,0.801,0.759,���k��,7.6,��
2019/01/06,20:00,0.787,1.181,0.828,1.509,1.072,0.454,0.801,0.760,���k��,9.7,��
2019/01/06,20:10,0.789,1.179,0.828,1.506,1.072,0.453,0.801,0.757,���k��,8.4,��
2019/01/06,20:20,0.787,1.177,0.829,1.507,1.072,0.453,0.802,0.758,���k��,8.6,��
2019/01/06,20:30,0.786,1.179,0.828,1.509,1.073,0.453,0.801,0.758,���k��,7.8,��
2019/01/06,20:40,0.786,1.178,0.830,1.507,1.072,0.452,0.801,0.758,���k��,7.1,��
2019/01/06,20:50,0.786,1.179,0.828,1.509,1.073,0.453,0.801,0.759,���k��,6.5,��
2019/01/06,21:00,0.788,1.177,0.829,1.510,1.072,0.454,0.800,0.759,��,5.1,��
2019/01/06,21:10,0.788,1.178,0.827,1.508,1.072,0.454,0.801,0.759,��,4.5,��
2019/01/06,21:20,0.786,1.178,0.827,1.506,1.071,0.454,0.801,0.760,��,3.7,��
2019/01/06,21:30,0.785,1.178,0.828,1.509,1.072,0.454,0.800,0.760,��,3.3,��
2019/01/06,21:40,0.786,1.177,0.827,1.509,1.070,0.454,0.800,0.758,��,3.5,��
2019/01/06,21:50,0.786,1.177,0.827,1.506,1.072,0.453,0.800,0.759,���k��,2.8,��
2019/01/06,22:00,0.788,1.176,0.825,1.507,1.073,0.454,0.798,0.758,���k��,2.0,��
2019/01/06,22:10,0.785,1.177,0.828,1.508,1.073,0.453,0.801,0.757,�k��,2.0,��
2019/01/06,22:20,0.788,1.176,0.826,1.505,1.070,0.453,0.800,0.758,�k�k��,1.5,��
2019/01/06,22:30,0.786,1.178,0.828,1.505,1.070,0.453,0.800,0.758,�k�k��,0.9,��
2019/01/06,22:40,0.787,1.178,0.826,1.507,1.071,0.453,0.799,0.757,���k��,0.9,��
2019/01/06,22:50,0.787,1.178,0.827,1.509,1.071,0.453,0.799,0.756,���쐼,1.5,��
2019/01/06,23:00,0.787,1.178,0.828,1.507,1.074,0.453,0.800,0.758,�쐼,1.4,��
2019/01/06,23:10,0.786,1.177,0.826,1.504,1.070,0.453,0.800,0.759,���쐼,1.1,��
2019/01/06,23:20,0.785,1.178,0.826,1.507,1.070,0.453,0.799,0.757,��,0.8,��
2019/01/06,23:30,0.786,1.175,0.825,1.507,1.070,0.453,0.800,0.758,���쐼,0.9,��
2019/01/06,23:40,0.786,1.178,0.826,1.505,1.072,0.455,0.800,0.758,���쐼,0.9,��
2019/01/06,23:50,0.786,1.177,0.825,1.506,1.071,0.454,0.798,0.759,��쐼,0.6,��
